Jamestown, ND

4:35 PM CDT on August 24, 2016 (GMT -0500)
Jamestown Municipal

Weather History for KJMS - December, 2013

Change the Weather History Date:

Tuesday, December 24, 2013

  Actual Average Record
Temperature  
Mean Temperature 11 °F 12 °F  
Max Temperature 30 °F 21 °F 44 °F (1957)
Min Temperature -9 °F 3 °F -26 °F (1921)
Degree Days  
Heating Degree Days 54 53  
Month to date heating degree days 1478 1200  
Since 1 July heating degree days 3486 3284  
Cooling Degree Days 0 0  
Month to date cooling degree days 0 0  
Year to date cooling degree days 521 446  
Moisture  
Dew Point 5 °F    
Average Humidity 80    
Maximum Humidity 92    
Minimum Humidity 68    
Precipitation  
Precipitation 0.04 in 0.01 in 0.40 in (1907)
Month to date precipitation 0.24 0.30  
Year to date precipitation 16.11 18.67  
Sea Level Pressure  
Sea Level Pressure 30.03 in    
Wind  
Wind Speed 14 mph (SSW)    
Max Wind Speed 31 mph    
Max Gust Speed 36 mph    
Visibility 6 miles    
Events Snow    
T = Trace of Precipitation, MM = Missing Value Source: NWS Daily Summary

Daily Weather History Graph

Daily Weather History Graph

Search for Another Location

Airport or City:

Trip Planner

Search our weather history database for the weather conditions in past years. The results will help you decide how hot, cold, wet, or windy it might be!

Date:

Astronomy

Dec. 24, 2013 Rise Set
Actual Time 8:18 AM CST 4:50 PM CST
Civil Twilight 7:43 AM CST 5:25 PM CST
Nautical Twilight 7:04 AM CST 6:04 PM CST
Astronomical Twilight 6:27 AM CST 6:41 PM CST
Moon No Moon Rise 11:48 AM CST
Length of Visible Light 9h 42m
Length of Day
8h 31m
Waning Gibbous, 58% of the Moon is Illuminated
Dec 24
Waning Gibbous
Dec 25
Last Quarter
Jan 1
New
Jan 7
First Quarter
Jan 15
Full

Hourly Weather History & Observations

Time (CST) Temp. Windchill Dew Point Humidity Pressure Visibility Wind Dir Wind Speed Gust Speed Precip Events Conditions
12:56 AM -7.1 °F -32.7 °F -14.1 °F 72% 30.31 in 4.0 mi South 23.0 mph 33.4 mph N/A   Haze
1:56 AM -6.0 °F -31.7 °F -13.0 °F 72% 30.27 in 5.0 mi South 24.2 mph 31.1 mph N/A   Haze
2:56 AM -5.1 °F -31.0 °F -11.0 °F 76% 30.23 in 7.0 mi South 25.3 mph - N/A   Overcast
3:56 AM -2.9 °F -28.6 °F -9.0 °F 75% 30.18 in 8.0 mi South 26.5 mph - N/A   Overcast
4:35 AM -2.0 °F -27.8 °F -8.0 °F 76% 30.01 in 4.0 mi South 27.6 mph 34.5 mph N/A   Haze
4:56 AM -0.9 °F -25.0 °F -7.1 °F 75% 30.12 in 6.0 mi South 24.2 mph 31.1 mph N/A   Haze
5:06 AM -0.9 °F -27.1 °F -6.0 °F 79% 29.97 in 3.0 mi South 29.9 mph 34.5 mph N/A   Haze
5:11 AM -0.9 °F -25.0 °F -6.0 °F 79% 29.98 in 3.0 mi South 24.2 mph 34.5 mph N/A   Haze
5:56 AM -0.0 °F -22.9 °F -5.1 °F 79% 30.12 in 6.0 mi South 21.9 mph - N/A   Haze
6:17 AM 1.0 °F -20.4 °F -2.9 °F 83% 29.98 in 2.5 mi South 19.6 mph 28.8 mph 0.00 in Snow Light Snow
6:25 AM 1.0 °F -20.4 °F -2.9 °F 83% 29.98 in 4.0 mi South 19.6 mph - 0.00 in   Overcast
6:35 AM 1.0 °F -20.4 °F -2.9 °F 83% 29.97 in 1.8 mi South 19.6 mph - 0.00 in Snow Light Snow
6:50 AM 1.4 °F -21.4 °F -2.2 °F 85% 29.96 in 0.8 mi South 23.0 mph 28.8 mph 0.01 in Snow Light Snow
6:51 AM 1.9 °F -21.2 °F -2.0 °F 83% 30.10 in 0.8 mi South 24.2 mph 28.8 mph 0.01 in Snow Light Snow
7:14 AM 1.9 °F -18.7 °F -0.9 °F 88% 29.98 in 1.0 mi South 18.4 mph 29.9 mph 0.01 in Snow Light Snow
7:25 AM 3.0 °F -17.8 °F -0.9 °F 84% 29.97 in 3.0 mi South 19.6 mph - 0.01 in Snow Light Snow
7:38 AM 3.9 °F -18.1 °F -0.9 °F 80% 29.96 in 4.0 mi South 23.0 mph - 0.01 in   Haze
7:56 AM 3.9 °F -16.6 °F -0.0 °F 84% 30.10 in 5.0 mi South 19.6 mph - 0.01 in   Overcast
8:12 AM 3.9 °F -17.6 °F -0.0 °F 84% 29.95 in 1.8 mi South 21.9 mph - 0.00 in Snow Light Snow
8:21 AM 3.9 °F -16.6 °F -0.0 °F 84% 29.94 in 1.2 mi South 19.6 mph - 0.00 in Snow Light Snow
8:51 AM 3.2 °F -15.9 °F 1.4 °F 92% 29.96 in 0.8 mi South 16.1 mph 23.0 mph 0.01 in Snow Light Snow
8:56 AM 3.9 °F -15.0 °F 1.0 °F 88% 30.10 in 0.8 mi South 16.1 mph - 0.01 in Snow Light Snow
9:37 AM 5.0 °F -13.0 °F 1.0 °F 84% 29.95 in 1.2 mi South 15.0 mph - 0.01 in Snow Light Snow
9:56 AM 5.0 °F -10.8 °F 1.9 °F 87% 30.09 in 2.5 mi South 11.5 mph - 0.01 in Snow Light Snow
10:05 AM 6.1 °F -8.7 °F 1.9 °F 83% 29.96 in 4.0 mi South 10.4 mph - 0.00 in Snow Light Snow
10:28 AM 6.1 °F -9.5 °F 1.9 °F 83% 29.96 in 2.5 mi South 11.5 mph - 0.00 in Snow Light Snow
10:36 AM 6.1 °F -8.7 °F 1.9 °F 83% 29.96 in 4.0 mi South 10.4 mph - 0.00 in Snow Light Snow
10:56 AM 6.1 °F -8.7 °F 3.0 °F 87% 30.10 in 8.0 mi South 10.4 mph - 0.00 in   Overcast
11:13 AM 7.0 °F -9.8 °F 3.0 °F 84% 29.96 in 7.0 mi South 13.8 mph - N/A   Overcast
11:28 AM 7.0 °F -7.5 °F 3.0 °F 84% 29.96 in 8.0 mi South 10.4 mph - N/A   Mostly Cloudy
11:46 AM 7.0 °F -7.5 °F 3.0 °F 84% 29.96 in 9.0 mi South 10.4 mph - N/A   Scattered Clouds
11:50 AM 6.8 °F -7.8 °F 3.2 °F 85% 29.95 in 7.0 mi South 10.4 mph - N/A   Mostly Cloudy
11:56 AM 7.0 °F -6.6 °F 3.9 °F 87% 30.09 in 5.0 mi South 9.2 mph - N/A   Mostly Cloudy
12:08 PM 8.1 °F -7.7 °F 3.9 °F 83% 29.95 in 8.0 mi South 12.7 mph - N/A   Overcast
12:19 PM 8.1 °F -5.3 °F 3.9 °F 83% 29.94 in 7.0 mi South 9.2 mph - N/A   Overcast
12:56 PM 10.0 °F -4.5 °F 5.0 °F 80% 30.07 in 7.0 mi SSW 11.5 mph - N/A   Overcast
1:39 PM 10.9 °F 0.2 °F 7.0 °F 84% 29.93 in 10.0 mi South 6.9 mph - N/A   Overcast
1:56 PM 12.0 °F 0.5 °F 8.1 °F 84% 30.05 in 10.0 mi South 8.1 mph - N/A   Overcast
2:54 PM 19.4 °F 8.6 °F 15.8 °F 86% 29.95 in 9.0 mi West 9.2 mph - N/A   Overcast
2:56 PM 19.0 °F 8.2 °F 16.0 °F 88% 30.06 in 9.0 mi West 9.2 mph - N/A   Overcast
3:56 PM 21.0 °F 10.6 °F 18.0 °F 88% 30.08 in 10.0 mi WNW 9.2 mph - N/A   Overcast
4:29 PM 24.1 °F 13.1 °F 19.9 °F 84% 29.98 in 10.0 mi NNW 11.5 mph - N/A   Overcast
4:56 PM 24.1 °F 15.2 °F 19.9 °F 84% 30.09 in 10.0 mi NW 8.1 mph - N/A   Overcast
5:56 PM 23.0 °F 17.0 °F 19.9 °F 88% 30.09 in 10.0 mi WNW 4.6 mph - N/A   Overcast
6:56 PM 23.0 °F 15.8 °F 19.0 °F 85% 30.09 in 10.0 mi SW 5.8 mph - N/A   Overcast
7:13 PM 21.0 °F 14.6 °F 18.0 °F 88% 30.00 in 10.0 mi SW 4.6 mph - N/A   Scattered Clouds
7:56 PM 19.9 °F 11.1 °F 18.0 °F 92% 30.09 in 10.0 mi SW 6.9 mph - N/A   Partly Cloudy
8:56 PM 21.9 °F 13.4 °F 19.0 °F 89% 30.06 in 10.0 mi SW 6.9 mph - N/A   Overcast
9:03 PM 21.9 °F 15.7 °F 19.0 °F 89% 29.96 in 10.0 mi SW 4.6 mph - N/A   Overcast
9:56 PM 21.9 °F 15.7 °F 19.0 °F 89% 30.05 in 10.0 mi SSW 4.6 mph - N/A   Overcast
10:25 PM 23.0 °F 17.0 °F 19.9 °F 88% 29.94 in 10.0 mi SW 4.6 mph - N/A   Overcast
10:56 PM 28.9 °F 18.2 °F 24.1 °F 82% 30.03 in 10.0 mi West 13.8 mph - N/A   Overcast
11:27 PM 28.9 °F 17.7 °F 25.0 °F 85% 29.93 in 10.0 mi West 15.0 mph - N/A   Mostly Cloudy
11:56 PM 28.9 °F 17.7 °F 25.0 °F 85% 30.02 in 10.0 mi West 15.0 mph - N/A   Mostly Cloudy